Hourly Data Report for October 01, 2017

All times are specified in Local Standard Time (LST). Add 1 hour to adjust for Daylight Saving Time where and when it is observed.

PORTAGE SOUTHPORT
MANITOBA

49°54'11.300" N
98°17'02.900" W
272.70 m
5012324
71851
WPG

Download Data

Hourly Data (October 2017)
Hourly Data Report for October 1, 2017
Temp Definition
°C
Dew Point Temp Definition
°C
Rel Hum Definition
%
Wind Dir Definition
10's deg

Wind Spd Definition
km/h
Visibility Definition
km
Stn Press Definition
kPa
Hmdx Definition


Wind Chill Definition


Weather Definition


TIME
00:00 15.8 11.1 73 15 20   97.36     LegendNANA
01:00 14.8 10.4 75 15 19   97.31     LegendNANA
02:00 14.2 10.3 77 15 14   97.28     LegendNANA
03:00 13.5 10.1 80 14 14   97.24     LegendNANA
04:00 12.9 9.9 82 13 10   97.20     LegendNANA
05:00 12.7 10.1 84 14 12   97.16     LegendNANA
06:00 12.7 10.2 85 15 13   97.12     LegendNANA
07:00 12.7 10.3 85 14 13   97.11     LegendNANA
08:00 14.1 10.5 79 14 19   97.12     LegendNANA
09:00 15.0 10.6 75 15 19   97.10     LegendNANA
10:00 15.2 10.9 76 14 14   97.10     LegendNANA
11:00 16.0 11.4 74 14 15   97.06     LegendNANA
12:00 16.3 12.4 78 14 18   97.03     LegendNANA
13:00 15.8 12.5 81 14 15   96.95     LegendNANA
14:00 14.9 12.3 85 13 19   96.90     LegendNANA
15:00 14.4 12.1 86 14 16   96.89     LegendNANA
16:00 14.1 12.3 89 14 14   96.86     LegendNANA
17:00 14.1 12.5 90 14 11   96.89     LegendNANA
18:00 14.4 12.6 89 13 10   96.90     LegendNANA
19:00 14.2 12.8 91 13 13   96.91     LegendNANA
20:00 14.3 12.7 90 14 12   96.92     LegendNANA
21:00 14.2 12.9 92 13 14   96.91     LegendNANA
22:00 14.1 13.0 93 14 12   96.89     LegendNANA
23:00 13.9 13.1 95 13 10   96.86     LegendNANA

Notes on Data Quality.

Legend

  • E = Estimated
  • M = Missing
  • NA = Not Available
  • ‡ = Partner data that is not subject to review by the National Climate Archives
Date modified: